Temperature
8 7 7 7 8 8 8 8 8 9 10 9 8 9 10 10 10 10 11 11 11 12 12 12 12 12 12 11 11 11 11 11 11 11 11 11 11 11 11 11 11 11 11 11
6 6 8 8 8 8 8 8 8 9 9 9 8 9 10 9 9 10 11 11 11 11 11 11 11 11 11 11 11 11 11 11 11 11 11 11 11 11 11 10 11 11 11 11
6 7 8 8 7 8 8 7 8 8 9 9 9 8 9 9 10 11 11 11 11 11 11 11 11 11 11 11 11 10 11 11 11 10 10 10 10 10 10 10 10 10 10 10
6 7 8 8 8 8 7 8 8 8 7 7 8 7 8 9 9 9 10 10 11 11 11 11 11 11 11 11 11 10 10 10 10 10 10 10 10 10 10 10 10 10 10 10
6 7 7 7 8 8 7 8 8 8 7 6 7 7 7 8 9 9 9 10 11 11 11 11 11 11 11 11 10 10 10 10 10 10 10 10 10 10 10 10 10 10 10 10
6 6 7 7 8 8 8 8 7 6 6 6 7 7 7 7 9 9 9 10 10 11 11 11 10 10 10 10 10 10 10 10 10 9 9 9 10 10 9 9 9 9 9 9
5 6 6 7 7 7 7 6 6 6 6 7 7 7 8 8 9 9 10 10 10 10 10 10 10 10 10 10 10 10 10 9 9 9 9 9 9 9 9 9 9 9 9 9
4 4 6 6 6 6 6 7 6 7 6 6 6 7 8 8 9 10 10 10 10 10 10 10 10 10 10 10 10 9 9 9 9 9 9 9 9 9 9 9 9 9 9 9
3 4 6 6 7 6 6 6 6 6 6 6 6 6 7 8 8 8 8 9 9 9 10 10 10 9 9 9 9 9 9 9 9 9 8 8 8 8 8 8 8 8 8 8
3 3 5 6 6 6 6 6 5 5 6 7 7 6 7 7 7 7 7 8 8 9 9 9 9 9 9 9 9 9 9 9 9 8 8 8 8 8 8 8 8 8 8 8
3 3 4 4 5 5 5 5 5 5 5 6 6 7 7 7 7 7 7 8 8 8 8 8 8 9 9 8 8 8 8 8 8 8 8 8 8 7 7 7 7 7 7 7
2 2 2 3 4 5 5 5 5 5 4 4 5 6 7 6 6 6 7 7 8 8 8 8 8 8 8 8 8 8 8 8 8 8 8 7 7 7 7 7 7 7 7 7
2 2 2 3 4 4 4 4 4 4 4 4 5 6 6 5 6 6 6 6 7 7 7 7 7 7 7 7 7 7 7 7 7 7 7 7 7 6 6 6 6 6 6 6
3 1 2 3 3 3 3 4 4 4 3 4 4 5 6 5 5 5 6 6 6 6 6 6 6 6 7 7 7 7 7 7 7 7 7 6 6 6 6 6 6 6 6 6
1 1 1 2 3 3 3 3 4 3 3 3 4 5 5 5 5 5 5 5 5 5 5 6 6 6 6 6 6 6 6 6 6 6 6 6 6 6 6 6 5 5 5 5
0 0 1 1 2 2 2 3 3 4 4 4 4 4 5 4 4 4 4 5 4 4 5 5 5 5 6 6 6 6 6 6 6 6 6 5 5 5 5 5 5 5 5 5
-1 -0 0 1 2 2 2 2 3 3 3 4 4 4 4 3 3 3 4 4 4 4 4 4 5 5 5 5 5 5 5 5 5 5 5 5 5 5 5 5 5 4 4 4
-1 -1 -0 0 1 1 2 3 3 3 3 3 3 4 3 3 3 3 4 3 3 3 4 4 4 4 4 5 5 5 5 5 5 5 5 5 5 4 4 4 4 4 4 4
-1 -1 -1 -0 -0 1 2 2 1 2 2 2 3 3 2 3 2 2 3 3 3 3 3 3 3 4 4 4 4 4 4 4 4 4 4 4 4 4 4 4 3 3 3 3
-1 -1 -1 -1 -0 -0 1 1 1 2 1 1 1 2 1 2 2 1 2 2 2 2 2 3 3 3 3 3 3 3 4 4 4 4 4 4 3 3 3 3 3 3 3 2
-2 -2 -2 -1 -1 -1 0 0 1 1 1 1 1 1 1 1 2 1 1 1 1 1 1 2 2 2 2 3 3 3 3 3 3 3 3 3 3 3 3 3 2 2 2 2
-2 -2 -1 -1 -2 -1 -0 -0 -0 -0 -0 -0 0 0 0 0 0 -0 -0 -0 -0 0 0 1 1 1 1 2 2 2 2 2 2 2 2 2 2 2 2 2 2 2 1 1
-2 -2 -2 -2 -1 -1 -1 -1 -1 -1 -1 -1 -1 -1 -1 -1 -1 -1 -1 -1 -1 -1 -1 -0 -0 -0 0 1 1 1 1 1 1 1 1 1 1 1 1 1 1 1 1 0
-3 -2 -2 -2 -2 -2 -2 -1 -1 -1 -1 -1 -1 -1 -1 -2 -2 -2 -2 -2 -2 -2 -2 -1 -1 -1 -1 -1 -0 -0 -0 0 0 0 0 0 0 0 0 0 0 0 -0 -0
-4 -3 -3 -3 -3 -2 -2 -2 -2 -2 -2 -2 -2 -2 -2 -2 -3 -3 -3 -3 -3 -3 -2 -2 -2 -2 -2 -1 -1 -1 -1 -1 -0 -0 -0 -0 -0 -0 -0 -1 -1 -1 -1 -1
-4 -4 -4 -3 -3 -3 -3 -2 -2 -2 -2 -2 -2 -2 -3 -3 -3 -3 -3 -3 -3 -3 -3 -2 -2 -2 -2 -2 -2 -2 -2 -1 -1 -1 -1 -1 -1 -1 -1 -1 -1 -1 -1 -1
Wind_Speed
5 6 13 17 16 8 6 7 9 8 5 6 11 14 14 10 8 10 9 9 10 11 8 7 8 8 8 8 8 8 8 8 7 6 6 5 4 4 4 5 8 8 9 10
4 15 15 9 9 9 9 9 9 6 4 6 9 14 13 10 10 11 12 11 11 9 7 7 8 8 9 9 9 10 10 9 8 7 5 4 4 3 3 4 6 8 9 10
15 8 8 8 9 12 13 12 10 7 4 4 4 10 10 8 8 9 10 11 11 12 12 10 9 9 9 10 10 9 10 9 8 7 6 5 4 4 3 3 4 5 8 9
12 9 7 10 12 12 14 10 9 7 4 5 4 6 9 7 8 10 11 10 11 11 11 10 10 10 10 10 9 9 9 8 8 8 9 10 7 6 5 5 4 5 7 8
9 7 9 12 13 12 9 6 8 8 7 6 5 5 9 4 8 10 11 11 11 11 12 11 11 10 9 8 8 8 8 8 8 8 9 9 7 5 4 5 6 5 5 6
9 6 8 8 7 9 6 3 2 2 3 9 10 8 8 6 10 8 9 10 11 11 10 9 8 8 7 7 7 8 8 7 8 9 8 9 9 8 8 8 7 5 4 4
7 8 5 4 4 4 5 5 3 3 5 9 6 7 10 7 7 9 10 10 11 11 10 10 9 9 9 8 8 8 9 8 8 9 8 8 9 10 10 9 8 7 5 3
5 7 7 5 8 8 11 10 8 7 7 5 4 9 8 6 6 6 6 6 7 8 9 10 10 10 10 10 10 9 10 8 8 9 8 8 8 7 6 7 7 7 5 5
5 7 3 6 5 8 8 9 6 4 2 3 6 6 7 3 2 2 3 4 6 7 8 9 9 9 9 10 10 11 10 8 8 9 9 8 8 7 7 7 6 5 5 4
3 5 5 3 2 6 6 6 4 5 5 5 5 5 5 3 4 3 4 5 5 6 6 7 8 9 8 8 8 9 9 9 8 8 9 8 8 8 7 7 7 6 6 5
2 4 4 2 7 9 5 6 4 4 4 5 4 5 4 6 5 5 5 5 6 6 7 7 6 7 7 7 7 8 8 8 7 8 8 8 8 7 7 7 6 6 6 6
2 2 5 6 5 5 6 7 6 6 5 4 4 6 3 1 1 3 3 2 3 4 4 5 6 6 6 7 7 7 8 8 8 7 7 8 7 7 7 6 6 6 6 6
2 2 2 3 2 0 3 4 5 4 3 4 5 6 4 3 4 2 2 2 3 4 4 4 4 4 5 6 6 7 7 7 8 8 8 7 7 7 7 6 6 6 6 5
3 3 5 7 4 2 4 5 5 5 5 5 7 7 6 3 2 2 2 2 3 4 4 4 3 3 3 4 5 6 6 6 7 7 8 8 8 8 7 6 6 6 6 6
0 4 6 8 7 5 6 8 8 8 9 8 8 7 8 5 3 2 1 2 3 3 3 3 3 2 2 2 3 4 5 6 7 7 7 7 7 6 6 6 5 5 5 5
1 3 4 7 6 5 7 8 9 10 8 8 7 8 6 3 1 2 3 4 4 3 3 3 3 3 2 2 2 2 4 5 6 7 7 6 6 6 6 6 5 5 5 4
3 3 3 5 4 2 5 6 7 5 5 7 10 9 3 2 3 5 5 4 4 3 3 3 3 2 2 2 2 3 3 5 6 6 6 5 6 6 5 5 5 5 5 4
5 4 3 2 0 4 5 2 2 3 4 4 4 4 3 4 2 1 2 3 3 2 1 2 2 2 1 1 1 2 3 4 5 5 5 5 6 5 5 5 5 4 4 4
6 4 2 2 3 4 4 4 2 2 4 3 4 3 1 1 2 2 2 2 2 1 2 2 2 2 2 2 2 3 3 4 5 5 5 5 6 6 5 5 4 3 3 3
2 3 2 2 2 3 3 7 7 0 3 4 2 1 1 2 2 3 1 2 3 2 2 2 2 3 3 2 3 4 3 3 4 4 4 4 5 5 5 5 4 3 3 3
1 0 2 2 2 2 5 8 4 2 4 6 3 1 2 2 2 2 3 4 4 4 4 4 4 4 2 2 4 4 3 2 2 3 3 3 3 4 4 4 3 3 3 2
1 0 1 1 1 3 6 5 2 3 5 5 4 2 3 4 6 6 6 6 6 6 5 5 5 5 4 3 4 4 3 1 2 3 4 3 3 2 3 4 3 3 3 3
1 1 1 1 1 3 4 3 4 4 4 4 4 3 5 6 6 6 6 6 6 6 5 5 6 6 5 4 5 4 2 2 3 4 3 3 3 2 2 3 3 2 2 2
4 4 1 1 2 4 6 6 7 6 5 5 5 5 6 6 6 6 6 6 6 6 6 5 6 6 5 5 5 4 3 3 4 4 3 3 2 2 1 1 2 2 2 2
3 3 2 1 3 4 6 7 6 7 7 7 7 7 6 7 7 6 6 6 5 5 5 5 5 5 5 5 5 5 4 4 4 4 3 2 2 2 1 1 0 2 2 4
4 2 1 1 3 2 3 5 6 6 7 6 7 8 7 6 6 6 6 5 5 5 5 5 6 5 5 5 5 5 4 3 3 3 2 1 1 1 1 0 1 2 2 3
Wind_Direction
193 194 214 213 210 218 209 221 238 245 220 207 233 252 260 249 235 238 236 222 216 217 212 200 192 178 170 169 167 169 171 168 159 158 159 156 161 157 149 148 147 146 149 146
197 227 225 210 210 223 232 241 248 268 244 225 250 261 261 245 231 228 226 219 215 211 204 203 192 178 175 177 176 176 175 171 169 172 167 157 148 145 150 143 140 148 154 149
212 226 201 201 210 218 232 229 233 244 298 279 280 280 260 250 234 237 228 217 209 203 199 198 193 189 182 182 182 184 178 173 170 164 151 137 120 113 130 148 148 146 152 146
231 235 203 210 219 209 237 226 221 230 235 259 212 271 268 246 248 237 229 215 210 204 197 194 191 188 188 187 180 182 176 171 169 162 163 160 159 162 173 165 149 140 145 143
235 209 206 219 221 207 226 210 216 223 219 249 230 236 273 244 243 241 227 213 205 199 193 191 190 187 183 177 176 176 168 168 170 168 170 165 160 157 148 143 138 144 137 141
245 231 214 222 224 209 202 170 206 210 198 243 220 207 265 224 224 233 225 211 200 193 190 186 182 173 170 168 168 167 163 166 170 168 169 167 162 154 149 148 152 153 144 139
254 247 232 197 195 198 176 159 195 222 220 240 193 206 248 237 228 216 218 211 197 190 184 178 174 172 172 172 171 168 166 167 169 164 166 166 161 158 157 156 158 155 151 149
231 253 223 211 201 194 201 187 188 202 213 245 199 223 250 251 242 226 211 196 180 183 184 182 180 176 177 178 174 170 171 171 169 167 168 162 157 158 156 154 155 158 161 160
222 249 255 223 206 178 187 209 197 166 192 221 236 261 290 290 279 234 189 166 176 184 181 181 179 175 176 176 176 175 174 173 173 172 165 159 154 154 156 152 148 151 152 149
225 256 259 238 189 205 186 170 156 183 192 226 243 236 239 249 248 231 190 183 189 181 172 171 175 174 174 173 172 172 173 174 173 172 170 165 160 159 158 155 157 158 156 151
239 237 269 219 202 198 174 182 182 187 199 191 224 251 231 215 214 207 203 193 182 177 173 169 169 169 163 160 166 168 168 166 165 167 166 160 159 157 155 157 161 161 158 158
240 226 247 247 256 220 191 187 173 191 220 205 209 257 306 265 233 190 183 170 152 148 149 150 149 147 152 159 164 169 169 167 164 157 153 154 153 153 155 160 163 162 162 163
279 236 273 301 292 277 211 201 193 195 184 199 206 251 328 16 22 45 118 121 128 129 119 114 119 139 154 162 166 169 171 169 161 155 153 152 155 161 166 168 166 163 163 167
291 223 219 229 248 232 267 258 216 189 205 223 226 248 289 322 12 14 59 105 115 124 127 127 125 125 139 157 162 165 170 166 159 155 160 165 170 172 171 166 166 168 168 173
273 245 247 260 266 248 255 251 233 223 215 214 232 237 258 248 220 193 142 121 110 116 123 133 136 134 132 127 142 157 160 160 157 158 164 173 170 164 160 160 165 167 171 178
282 249 262 269 261 249 270 261 239 235 233 230 237 253 257 243 152 147 170 167 159 152 149 132 123 125 134 139 140 139 158 161 157 161 169 167 158 158 162 164 164 163 170 175
250 232 243 265 272 292 269 252 229 222 221 214 231 241 234 209 193 199 194 185 185 175 162 153 149 144 152 159 151 156 160 153 152 158 159 157 158 162 166 163 161 167 173 173
224 234 227 243 54 224 245 279 215 220 239 232 237 238 216 220 213 195 163 165 170 158 147 147 140 131 123 123 123 126 129 140 148 150 150 152 155 159 159 159 166 171 174 178
210 210 204 186 210 270 306 334 337 240 271 286 251 260 274 121 71 26 28 103 152 164 166 163 155 139 124 124 131 118 112 128 139 150 155 160 161 159 159 165 172 173 170 181
199 192 181 177 186 233 297 319 322 228 282 333 334 249 179 111 185 256 359 70 77 76 92 99 102 104 103 106 120 118 119 126 148 161 160 156 157 160 167 172 173 171 172 186
19 51 201 207 220 277 315 326 356 131 282 327 330 295 174 199 200 137 96 78 77 80 82 86 85 80 77 94 109 110 106 122 148 140 131 131 139 151 158 158 160 162 168 169
172 168 210 162 188 280 333 3 14 293 320 338 358 29 71 71 84 92 90 85 79 74 71 76 75 61 45 60 92 93 82 77 94 111 119 122 128 138 139 144 153 162 164 169
307 260 221 167 206 320 353 1 341 347 349 357 21 54 88 89 85 84 82 79 73 71 68 71 77 64 48 49 75 81 56 63 88 98 103 105 103 104 124 145 159 164 167 186
331 352 41 35 335 356 8 12 10 14 19 19 38 60 80 84 82 81 77 72 67 63 65 68 73 65 50 44 54 62 53 72 91 91 86 90 95 87 76 116 162 177 193 207
331 348 11 356 331 358 8 8 12 25 32 41 46 53 67 80 77 79 78 71 67 63 60 66 72 69 56 47 46 44 50 68 79 80 82 81 86 104 88 60 214 218 224 218
358 357 353 302 320 334 336 354 15 36 33 41 59 57 52 67 78 75 72 67 64 60 58 56 57 57 50 46 41 38 43 68 88 80 70 73 80 81 85 53 356 341 285 288
Height
1477 1480 1476 1473 1474 1476 1478 1479 1479 1475 1471 1474 1473 1469 1464 1462 1464 1463 1462 1463 1463 1464 1467 1469 1471 1473 1475 1477 1479 1481 1483 1484 1487 1489 1491 1493 1495 1498 1501 1503 1505 1508 1511 1514
1477 1473 1466 1470 1473 1475 1476 1478 1477 1473 1470 1471 1471 1466 1460 1458 1458 1457 1457 1457 1458 1460 1462 1464 1466 1469 1471 1473 1475 1477 1479 1481 1483 1486 1489 1491 1493 1496 1499 1501 1503 1506 1509 1511
1467 1462 1463 1468 1470 1472 1472 1474 1474 1474 1471 1469 1470 1466 1458 1452 1451 1451 1451 1451 1453 1454 1456 1459 1462 1464 1467 1469 1471 1473 1475 1478 1480 1483 1486 1489 1491 1494 1496 1499 1501 1504 1507 1509
1463 1460 1461 1463 1464 1467 1467 1465 1468 1471 1475 1476 1472 1473 1455 1450 1448 1446 1445 1446 1447 1450 1451 1454 1457 1459 1462 1465 1468 1470 1472 1475 1477 1480 1483 1485 1487 1490 1493 1495 1498 1502 1505 1507
1458 1457 1458 1458 1457 1460 1461 1462 1465 1468 1472 1475 1472 1473 1456 1448 1446 1441 1440 1441 1442 1445 1447 1450 1453 1455 1458 1462 1464 1467 1469 1472 1474 1477 1480 1483 1485 1488 1491 1494 1497 1500 1503 1506
1456 1454 1454 1453 1454 1456 1458 1462 1465 1469 1473 1472 1464 1469 1455 1447 1439 1436 1435 1436 1438 1441 1443 1446 1449 1453 1456 1459 1461 1464 1466 1469 1472 1474 1477 1480 1483 1486 1488 1491 1494 1498 1501 1504
1455 1452 1450 1450 1453 1454 1457 1464 1470 1471 1471 1462 1457 1458 1446 1436 1432 1430 1430 1431 1433 1437 1440 1443 1446 1449 1452 1455 1458 1460 1463 1466 1469 1471 1474 1477 1481 1484 1486 1489 1492 1495 1498 1501
1458 1454 1447 1447 1448 1451 1453 1455 1461 1462 1462 1460 1456 1452 1439 1430 1427 1426 1427 1428 1430 1434 1437 1439 1442 1445 1448 1452 1455 1457 1460 1463 1466 1469 1472 1475 1479 1482 1484 1487 1490 1493 1496 1499
1456 1451 1443 1442 1442 1445 1449 1452 1451 1457 1458 1460 1455 1448 1436 1428 1427 1426 1426 1427 1429 1431 1433 1436 1439 1442 1445 1448 1452 1455 1458 1461 1464 1467 1469 1473 1476 1479 1482 1485 1489 1492 1495 1497
1454 1452 1443 1441 1440 1441 1442 1446 1453 1454 1454 1451 1446 1443 1437 1430 1428 1426 1426 1426 1427 1429 1432 1434 1437 1439 1443 1446 1450 1453 1456 1459 1462 1465 1467 1470 1473 1477 1481 1484 1486 1490 1492 1495
1453 1453 1445 1442 1440 1440 1443 1445 1446 1450 1450 1448 1446 1440 1427 1426 1424 1424 1423 1424 1425 1427 1430 1432 1435 1437 1441 1445 1448 1451 1454 1457 1459 1462 1464 1468 1471 1475 1478 1481 1484 1487 1490 1492
1452 1452 1448 1442 1437 1435 1437 1439 1443 1448 1449 1448 1446 1439 1423 1423 1422 1422 1423 1424 1425 1427 1429 1431 1433 1436 1439 1443 1446 1449 1452 1455 1457 1460 1462 1465 1469 1472 1475 1478 1482 1484 1487 1489
1451 1452 1449 1443 1442 1439 1438 1437 1439 1442 1445 1448 1445 1437 1424 1423 1422 1423 1423 1424 1426 1428 1430 1431 1433 1435 1438 1441 1443 1447 1449 1452 1455 1458 1461 1464 1467 1470 1473 1476 1479 1482 1484 1486
1448 1449 1449 1444 1439 1439 1439 1436 1436 1440 1444 1444 1439 1433 1427 1426 1425 1425 1425 1426 1427 1429 1430 1431 1433 1435 1437 1440 1442 1444 1447 1450 1453 1456 1459 1462 1465 1468 1471 1474 1477 1479 1481 1483
1447 1448 1445 1441 1437 1436 1436 1435 1434 1436 1436 1439 1434 1432 1426 1426 1426 1427 1427 1428 1428 1429 1430 1431 1433 1435 1437 1438 1441 1443 1445 1448 1451 1453 1457 1459 1462 1466 1468 1471 1473 1476 1478 1480
1447 1447 1444 1439 1434 1434 1434 1432 1431 1430 1430 1430 1429 1428 1424 1424 1425 1426 1427 1428 1428 1429 1430 1431 1433 1434 1436 1437 1439 1441 1444 1446 1449 1452 1455 1457 1460 1463 1465 1468 1470 1473 1475 1477
1448 1446 1445 1440 1435 1434 1435 1429 1428 1428 1426 1426 1426 1424 1423 1424 1425 1425 1426 1427 1427 1428 1429 1431 1432 1433 1435 1437 1438 1440 1442 1445 1447 1450 1452 1455 1457 1460 1462 1465 1467 1469 1471 1473
1446 1445 1444 1440 1439 1440 1429 1424 1424 1424 1423 1423 1422 1421 1421 1421 1422 1423 1425 1426 1426 1427 1428 1430 1431 1433 1434 1436 1437 1439 1441 1443 1445 1448 1450 1453 1455 1457 1460 1462 1464 1466 1468 1469
1440 1442 1442 1440 1440 1434 1428 1426 1425 1425 1424 1422 1421 1420 1421 1420 1421 1423 1424 1425 1426 1427 1428 1429 1430 1431 1433 1434 1436 1437 1439 1441 1444 1446 1448 1450 1452 1455 1457 1459 1461 1463 1464 1466
1437 1438 1441 1441 1439 1438 1431 1427 1423 1425 1426 1422 1420 1420 1419 1419 1423 1424 1424 1424 1425 1426 1427 1427 1429 1430 1432 1433 1435 1436 1438 1440 1442 1444 1446 1448 1450 1452 1454 1456 1458 1460 1461 1462
1440 1441 1442 1441 1440 1436 1432 1428 1424 1430 1428 1423 1420 1419 1418 1418 1419 1422 1422 1423 1424 1425 1426 1426 1427 1429 1430 1432 1434 1435 1437 1438 1440 1442 1444 1446 1448 1450 1452 1453 1455 1457 1458 1459
1442 1442 1440 1440 1444 1442 1433 1429 1431 1430 1426 1423 1420 1419 1419 1419 1419 1420 1422 1422 1423 1424 1425 1426 1426 1428 1430 1431 1432 1433 1435 1437 1439 1440 1442 1444 1446 1448 1449 1451 1452 1453 1454 1455
1442 1441 1440 1441 1443 1438 1435 1433 1432 1429 1427 1424 1422 1420 1420 1420 1421 1421 1422 1423 1424 1425 1426 1426 1427 1428 1430 1431 1432 1433 1434 1436 1437 1439 1440 1442 1444 1445 1447 1448 1449 1450 1450 1451
1443 1441 1441 1441 1440 1438 1436 1434 1431 1429 1427 1426 1424 1423 1422 1422 1423 1423 1424 1425 1426 1426 1427 1427 1427 1428 1430 1431 1432 1433 1434 1435 1436 1437 1439 1440 1441 1443 1444 1445 1446 1446 1447 1448
1447 1444 1443 1443 1441 1439 1437 1436 1434 1431 1429 1427 1426 1426 1425 1424 1425 1426 1426 1427 1428 1428 1429 1429 1429 1430 1431 1432 1433 1434 1434 1435 1435 1436 1438 1439 1440 1441 1441 1442 1443 1444 1444 1445
1449 1448 1447 1445 1443 1442 1441 1438 1436 1433 1431 1430 1429 1428 1428 1428 1428 1428 1429 1429 1430 1430 1431 1431 1431 1432 1433 1433 1434 1434 1435 1436 1436 1436 1437 1438 1438 1439 1439 1440 1440 1441 1442 1442